Inver Grove Heights, MN

12:37 AM CDT on August 27, 2016 (GMT -0500)
South Saint Paul Municipal-Fleming

Weather History for KSGS - April, 2014

Change the Weather History Date:

Monday, April 21, 2014

  Actual Average (KMSP) Record (KMSP)
Temperature  
Mean Temperature 60 °F 50 °F  
Max Temperature 71 °F 61 °F 95 °F (1980)
Min Temperature 48 °F 40 °F 22 °F (1966)
Degree Days  
Heating Degree Days 5 15  
Month to date heating degree days 415  
Since 1 July heating degree days 7203  
Cooling Degree Days 0 0  
Month to date cooling degree days 0  
Year to date cooling degree days 0  
Growing Degree Days 10 (Base 50)    
Moisture  
Dew Point 43 °F    
Average Humidity 56    
Maximum Humidity 96    
Minimum Humidity 22    
Precipitation  
Precipitation 0.12 in 0.09 in 0.74 in (1912)
Month to date precipitation 1.73  
Year to date precipitation 5.29  
Snow  
Snow 0.00 in 0.10 in 4.80 in (1972)
Month to date snowfall 2.0  
Since 1 July snowfall 54.0  
Snow Depth -    
Sea Level Pressure  
Sea Level Pressure 29.94 in    
Wind  
Wind Speed 8 mph (NW)    
Max Wind Speed 22 mph    
Max Gust Speed 30 mph    
Visibility 10 miles    
Events Rain , Thunderstorm    
T = Trace of Precipitation, MM = Missing Value Source: NWS Daily Summary

Daily Weather History Graph

Daily Weather History Graph

Search for Another Location

Airport or City:

Trip Planner

Search our weather history database for the weather conditions in past years. The results will help you decide how hot, cold, wet, or windy it might be!

Date:

Astronomy

Apr. 21, 2014 Rise Set
Actual Time 6:17 AM CDT 8:04 PM CDT
Civil Twilight 5:46 AM CDT 8:36 PM CDT
Nautical Twilight 5:08 AM CDT 9:14 PM CDT
Astronomical Twilight 4:27 AM CDT 9:55 PM CDT
Moon 1:39 AM CDT (4/21) 11:41 AM CDT (4/21)
Length of Visible Light 14h 49m
Length of Day
13h 47m
Waning Gibbous, 57% of the Moon is Illuminated
Apr 21
Waning Gibbous
Apr 22
Last Quarter
Apr 29
New
May 6
First Quarter
May 14
Full

Hourly Weather History & Observations

Time (CDT) Temp. Dew Point Humidity Pressure Visibility Wind Dir Wind Speed Gust Speed Precip Events Conditions
12:12 AM 60.8 °F 53.4 °F 77% 29.93 in 10.0 mi Calm Calm - N/A   Clear
12:32 AM 61.0 °F 54.0 °F 78% 29.93 in 10.0 mi Calm Calm - N/A   Clear
12:52 AM 60.1 °F 53.8 °F 80% 29.93 in 10.0 mi Calm Calm - N/A   Scattered Clouds
1:12 AM 61.0 °F 54.5 °F 79% 29.94 in 10.0 mi SSE 3.5 mph - N/A   Mostly Cloudy
1:32 AM 60.8 °F 54.5 °F 80% 29.94 in 10.0 mi Calm Calm - N/A   Mostly Cloudy
1:52 AM 60.1 °F 54.5 °F 82% 29.93 in 7.0 mi Calm Calm - N/A   Overcast
2:12 AM 60.4 °F 55.0 °F 82% 29.92 in 10.0 mi Calm Calm - N/A   Overcast
2:32 AM 60.1 °F 55.4 °F 85% 29.93 in 10.0 mi Calm Calm - N/A   Mostly Cloudy
2:52 AM 59.9 °F 55.4 °F 85% 29.89 in 7.0 mi SE 8.1 mph - N/A Rain Light Rain
3:12 AM 59.9 °F 55.8 °F 86% 29.92 in 7.0 mi WNW 5.8 mph - N/A Thunderstorm Overcast
3:32 AM 59.9 °F 55.6 °F 86% 29.90 in 7.0 mi South 5.8 mph - N/A Rain Light Rain
3:52 AM 59.4 °F 55.8 °F 88% 29.89 in 5.0 mi SE 4.6 mph - 0.03 in Rain Light Rain
4:12 AM 59.0 °F 55.8 °F 89% 29.87 in 5.0 mi SSE 6.9 mph - 0.02 in Rain , Thunderstorm Light Thunderstorms and Rain
4:32 AM 60.8 °F 56.5 °F 86% 29.89 in 10.0 mi WSW 6.9 mph 17.3 mph 0.03 in Rain Light Rain
4:52 AM 60.8 °F 56.8 °F 87% 29.90 in 10.0 mi SSW 6.9 mph - 0.04 in Rain Light Rain
5:12 AM 60.8 °F 57.0 °F 87% 29.89 in 7.0 mi SW 15.0 mph - 0.01 in Rain Light Rain
5:32 AM 59.0 °F 57.2 °F 94% 29.88 in 10.0 mi SW 15.0 mph 21.9 mph 0.03 in Rain Light Rain
5:52 AM 58.1 °F 56.3 °F 94% 29.88 in 10.0 mi SSW 16.1 mph 20.7 mph 0.05 in Rain Light Rain
6:11 AM 57.6 °F 55.9 °F 94% 29.85 in 10.0 mi SSW 15.0 mph - N/A Rain Light Rain
6:32 AM 57.2 °F 55.6 °F 94% 29.88 in 10.0 mi West 5.8 mph 16.1 mph N/A   Scattered Clouds
6:52 AM 57.4 °F 55.8 °F 94% 29.91 in 10.0 mi NNW 5.8 mph - N/A   Clear
7:12 AM 59.0 °F 57.4 °F 94% 29.92 in 10.0 mi WNW 8.1 mph - N/A   Clear
7:32 AM 58.8 °F 57.2 °F 94% 29.93 in 10.0 mi West 6.9 mph - N/A   Scattered Clouds
7:52 AM 58.5 °F 57.2 °F 96% 29.92 in 10.0 mi WSW 4.6 mph - N/A   Mostly Cloudy
8:12 AM 58.5 °F 57.2 °F 96% 29.92 in 10.0 mi Calm Calm - N/A   Scattered Clouds
8:32 AM 59.4 °F 58.1 °F 96% 29.93 in 10.0 mi WSW 3.5 mph - N/A   Scattered Clouds
8:52 AM 59.4 °F 58.1 °F 96% 29.93 in 10.0 mi WNW 9.2 mph - N/A   Scattered Clouds
9:12 AM 59.9 °F 58.5 °F 95% 29.93 in 10.0 mi West 9.2 mph - N/A   Scattered Clouds
9:32 AM 61.5 °F 59.4 °F 93% 29.92 in 10.0 mi West 9.2 mph - N/A   Mostly Cloudy
9:52 AM 63.5 °F 54.0 °F 71% 29.92 in 10.0 mi WNW 8.1 mph - N/A   Overcast
10:12 AM 64.9 °F 49.3 °F 57% 29.92 in 10.0 mi WNW 9.2 mph - N/A   Scattered Clouds
10:32 AM 66.7 °F 48.0 °F 51% 29.92 in 10.0 mi NW 9.2 mph - N/A   Scattered Clouds
10:52 AM 67.6 °F 45.9 °F 46% 29.92 in 10.0 mi NW 12.7 mph 17.3 mph N/A   Scattered Clouds
11:12 AM 68.5 °F 39.6 °F 35% 29.93 in 10.0 mi NW 11.5 mph 18.4 mph N/A   Scattered Clouds
11:32 AM 69.4 °F 36.1 °F 29% 29.92 in 10.0 mi WNW 15.0 mph 18.4 mph N/A   Scattered Clouds
11:52 AM 69.8 °F 36.7 °F 30% 29.92 in 10.0 mi NW 15.0 mph 21.9 mph N/A   Clear
12:12 PM 70.5 °F 34.3 °F 26% 29.92 in 10.0 mi NW 13.8 mph 19.6 mph N/A   Clear
12:32 PM 71.2 °F 32.9 °F 24% 29.91 in 10.0 mi NW 12.7 mph 21.9 mph N/A   Clear
12:52 PM 70.9 °F 29.5 °F 22% 29.91 in 10.0 mi West 15.0 mph 24.2 mph N/A   Clear
1:12 PM 71.1 °F 31.5 °F 23% 29.91 in 10.0 mi NW 17.3 mph 27.6 mph N/A   Clear
1:52 PM 70.9 °F 32.0 °F 24% 29.91 in 10.0 mi NNW 18.4 mph 28.8 mph N/A   Clear
2:12 PM 70.3 °F 32.7 °F 25% 29.91 in 10.0 mi NW 20.7 mph 26.5 mph N/A   Clear
2:32 PM 70.5 °F 34.9 °F 27% 29.91 in 10.0 mi NW 19.6 mph - N/A   Clear
2:52 PM 70.7 °F 35.8 °F 28% 29.92 in 10.0 mi NW 13.8 mph 25.3 mph N/A   Clear
3:12 PM 70.2 °F 37.8 °F 31% 29.92 in 10.0 mi WNW 12.7 mph 25.3 mph N/A   Clear
3:32 PM 69.4 °F 35.8 °F 29% 29.92 in 10.0 mi West 20.7 mph 28.8 mph N/A   Clear
3:52 PM 68.2 °F 35.4 °F 30% 29.93 in 10.0 mi WNW 12.7 mph 26.5 mph N/A   Clear
4:12 PM 68.0 °F 35.8 °F 31% 29.93 in 10.0 mi WNW 16.1 mph 26.5 mph N/A   Clear
4:32 PM 67.8 °F 34.5 °F 29% 29.93 in 10.0 mi NW 18.4 mph 25.3 mph N/A   Clear
4:52 PM 67.1 °F 33.8 °F 29% 29.94 in 10.0 mi NNW 19.6 mph 27.6 mph N/A   Clear
5:12 PM 66.2 °F 32.5 °F 29% 29.94 in 10.0 mi NNW 19.6 mph 27.6 mph N/A   Clear
5:32 PM 64.8 °F 29.3 °F 26% 29.95 in 10.0 mi North 20.7 mph 27.6 mph N/A   Clear
5:52 PM 64.4 °F 28.2 °F 26% 29.96 in 10.0 mi North 18.4 mph 23.0 mph N/A   Clear
6:12 PM 63.5 °F 31.5 °F 30% 29.96 in 10.0 mi NNW 15.0 mph 24.2 mph N/A   Clear
6:32 PM 62.2 °F 31.3 °F 31% 29.97 in 10.0 mi NW 21.9 mph 25.3 mph N/A   Clear
6:52 PM 61.7 °F 30.9 °F 31% 29.97 in 10.0 mi NNW 16.1 mph 29.9 mph N/A   Clear
7:12 PM 61.3 °F 31.6 °F 33% 29.97 in 10.0 mi WNW 15.0 mph 19.6 mph N/A   Clear
7:32 PM 61.0 °F 30.2 °F 31% 29.97 in 10.0 mi NNW 13.8 mph 24.2 mph N/A   Clear
7:52 PM 60.1 °F 29.1 °F 31% 29.98 in 10.0 mi NNW 12.7 mph 19.6 mph N/A   Clear
8:12 PM 59.4 °F 29.1 °F 32% 29.99 in 10.0 mi NNW 16.1 mph 26.5 mph N/A   Clear
8:31 PM 57.9 °F 28.2 °F 32% 30.00 in 10.0 mi NNW 15.0 mph - N/A   Clear
8:52 PM 57.0 °F 28.4 °F 34% 30.01 in 10.0 mi NW 11.5 mph 21.9 mph N/A   Clear
9:12 PM 55.6 °F 30.0 °F 38% 30.02 in 10.0 mi NNW 13.8 mph 19.6 mph N/A   Clear
9:32 PM 54.9 °F 26.6 °F 34% 30.03 in 10.0 mi NNW 15.0 mph 25.3 mph N/A   Clear
9:52 PM 53.8 °F 28.2 °F 37% 30.05 in 10.0 mi NNW 15.0 mph 24.2 mph N/A   Clear
10:12 PM 52.9 °F 27.9 °F 38% 30.06 in 10.0 mi NNW 12.7 mph 21.9 mph N/A   Clear
10:32 PM 51.8 °F 28.2 °F 40% 30.07 in 10.0 mi North 12.7 mph 23.0 mph N/A   Clear
10:52 PM 50.4 °F 28.4 °F 43% 30.07 in 10.0 mi North 19.6 mph 26.5 mph N/A   Clear
11:12 PM 49.6 °F 28.6 °F 44% 30.08 in 10.0 mi NNW 12.7 mph 21.9 mph N/A   Clear
11:32 PM 49.1 °F 28.4 °F 45% 30.08 in 10.0 mi North 11.5 mph 18.4 mph N/A   Clear
11:52 PM 48.6 °F 28.9 °F 47% 30.08 in 10.0 mi North 9.2 mph - N/A   Clear